Regional Weather Roundup
Issued by NWS

Home | Current Version | Previous Version | Text Only | Print | Product List | Glossary On
Versions: 1 2 3 4 5 6 7 8 9 10 11 12 13 14 15 16 17 18 19 20 21 22 23 24 25 26 27 28 29 30 31 32 33 34 35 36 37 38 39 40 41 42 43 44 45 46 47 48 49 50
000
ASUS43 KOAX 020002
RWRNE

WEATHER ROUNDUP FOR NEBRASKA
NATIONAL WEATHER SERVICE OMAHA NE
700 PM CDT MON SEP 01 2014

NOTES: SATELLITE DATA IS BEING USED TO AUGMENT CLOUD COVER ABOVE
       12000 FEET.
       "FAIR" INDICATES FEW OR NO CLOUDS BELOW 12,000 FEET WITH NO
       SIGNIFICANT WEATHER AND/OR OBSTRUCTIONS TO VISIBILITY.

  * THESE STATIONS DO NOT REPORT WEATHER SUCH AS RAIN...SNOW OR FOG.

NEZ001>004-019>022-054>056-020100-
NEBRASKA PANHANDLE

CITY           SKY/WX    TMP DP  RH WIND       PRES   REMARKS
SCOTTSBLUFF    LGT RAIN  70  48  45 NE13      29.94R
6HR MIN TEMP:  70; 6HR MAX TEMP:  82; 6HR PCP: TRACE;

ALLIANCE       MOSUNNY   65  47  52 N15       29.94R
6HR MIN TEMP:  65; 6HR MAX TEMP:  80;

CHADRON        MOSUNNY   62  50  64 NE7       29.97R
6HR MIN TEMP:  57; 6HR MAX TEMP:  76; 6HR PCP:  0.02;

KIMBALL        PTSUNNY   72  36  27 NW9       29.98R
SIDNEY         PTSUNNY   79  42  26 SW8       29.95S
6HR MIN TEMP:  70; 6HR MAX TEMP:  80;

$$

NEZ057>060-069>072-079>082-020100-
SOUTHWEST NEBRASKA

CITY           SKY/WX    TMP DP  RH WIND       PRES   REMARKS
NORTH PLATTE   MOSUNNY   75  50  41 SE5       29.91S
6HR MIN TEMP:  72; 6HR MAX TEMP:  77;

IMPERIAL       SUNNY     78  48  34 S7        29.91F
6HR MIN TEMP:  68; 6HR MAX TEMP:  79;

LEXINGTON      PTSUNNY   73  57  58 S7        29.92S HAZE
MCCOOK         SUNNY     77  51  40 E7        29.92S
6HR MIN TEMP:  70; 6HR MAX TEMP:  78; 6HR PCP: TRACE;

OGALLALA       SUNNY     73  52  48 SW7       29.90S
$$

NEZ005>010-023>029-035>040-094-020100-
NORTH CENTRAL NEBRASKA

CITY           SKY/WX    TMP DP  RH WIND       PRES   REMARKS
VALENTINE      LGT RAIN  63  57  81 NE6       29.94R
6HR MIN TEMP:  62; 6HR MAX TEMP:  79; 6HR PCP:  0.04;

AINSWORTH      RAIN      59  55  86 N8        29.92F
BROKEN BOW     SUNNY     75  56  51 S9        29.90R
6HR MIN TEMP:  73; 6HR MAX TEMP:  79;

O`NEILL        SUNNY     73  58  61 E5        29.87S
ORD            SUNNY     74  58  57 S8        29.87S
6HR MIN TEMP:  74; 6HR MAX TEMP:  78;

THEDFORD       PTSUNNY   76  49  37 N26G35    29.91R
$$

NEZ041-046>049-061>064-073>077-083>087-020100-
SOUTH CENTRAL NEBRASKA

CITY           SKY/WX    TMP DP  RH WIND       PRES   REMARKS
GRAND ISLAND   MOSUNNY   73  59  61 SW8       29.91S
6HR MIN TEMP:  72; 6HR MAX TEMP:  79; 6HR PCP: TRACE;

AURORA         PTSUNNY   71  61  70 S3        29.90F
HASTINGS       PTSUNNY   72  58  61 CALM      29.91S
6HR MIN TEMP:  71; 6HR MAX TEMP:  76; 6HR PCP:  0.01;

HEBRON         PTSUNNY   74  59  59 CALM      29.89F
HOLDREGE       MOSUNNY   72  57  60 CALM      29.92F
KEARNEY *      MOSUNNY   68  57  68 S6        29.92S
$$

NEZ011>018-030>034-042>045-020100-
NORTHEAST NEBRASKA

CITY           SKY/WX    TMP DP  RH WIND       PRES   REMARKS
NORFOLK        SUNNY     76  59  55 S6        29.86S
6HR MIN TEMP:  75; 6HR MAX TEMP:  80; 6HR PCP: TRACE;

ALBION         SUNNY     74  57  54 S5        29.88R
BLAIR          CLOUDY    72  63  73 E3        29.86F
FREMONT        CLOUDY    76  62  62 S5        29.87F
TEKAMAH        MOCLDY    76  67  73 S6        29.85S
6HR MIN TEMP:  74; 6HR MAX TEMP:  80;

WAYNE          SUNNY     76  63  63 S3        29.86S
$$

NEZ050>053-065>068-078-088>093-020100-
SOUTHEAST NEBRASKA

CITY           SKY/WX    TMP DP  RH WIND       PRES   REMARKS
LINCOLN        PTSUNNY   73  62  68 S7        29.87F
6HR MIN TEMP:  73; 6HR MAX TEMP:  80; 6HR PCP: TRACE;

OMAHA EPPLEY   LGT RAIN  75  61  61 SE10      29.86F
6HR MIN TEMP:  75; 6HR MAX TEMP:  81; 6HR PCP: TRACE;

BEATRICE       PTSUNNY   74  63  69 CALM      29.89F
FALLS CITY     PTCLDY    76  65  68 N3        29.88S
6HR MIN TEMP:  75; 6HR MAX TEMP:  83;

NEBRASKA CITY  MOCLDY    73  63  71 CALM      29.89S
PLATTSMOUTH    CLOUDY    73  65  75 CALM      29.89S
$$

NEZ044-045-051>053-067-020100-
OMAHA AREA

CITY           SKY/WX    TMP DP  RH WIND       PRES   REMARKS
OMAHA EPPLEY   LGT RAIN  75  61  61 SE10      29.86F
6HR MIN TEMP:  75; 6HR MAX TEMP:  81; 6HR PCP: TRACE;

BLAIR          CLOUDY    72  63  73 E3        29.86F
FREMONT        CLOUDY    76  62  62 S5        29.87F
MILLARD        CLOUDY    74  62  66 SE7       29.85F
OFFUTT AFB     CLOUDY    75  66  75 S5        29.87F
PLATTSMOUTH    CLOUDY    73  65  75 CALM      29.89S
WAHOO          FAIR      72  66  82 CALM      29.87F
$$


USA.gov is the U.S. government's official web portal to all federal, state and local government web resources and services.